This is the latest recevied weather packets stored in our database for station/object OK2VOP-6. If no packets are shown the sender has not sent any weather packets the latest 10 day(s).
| Time | Temp. | Humidity | Pressure | Rain* | Wind** | Luminosity | Snow |
|---|---|---|---|---|---|---|---|
| 1788652974 | 13.89° C | 43% | - | 0 mm | - | - | - |
| 1788651771 | 13.89° C | 42% | - | 0 mm | - | - | - |
| 1788648155 | 16.11° C | 36% | - | 0 mm | - | - | - |
| 1788646949 | 16.67° C | 34% | - | 0 mm | - | - | - |
| 1788643334 | 17.22° C | 35% | - | 0 mm | - | - | - |
| 1788642129 | 16.67° C | 36% | - | 0 mm | - | - | - |
| 1788639720 | 18.33° C | 31% | - | 0 mm | - | - | - |
| 1788638516 | 19.44° C | 29% | - | 0 mm | - | - | - |
| 1788637310 | 20° C | 27% | - | 0 mm | - | - | - |
| 1788636105 | 20.56° C | 27% | - | 0 mm | - | - | - |
| 1788632490 | 21.11° C | 22% | - | 0 mm | - | - | - |
| 1788631286 | 21.67° C | 22% | - | 0 mm | - | - | - |
| 1788630081 | 22.22° C | 20% | - | 0 mm | - | - | - |
| 1788628876 | 22.78° C | 18% | - | 0 mm | - | - | - |
| 1788626467 | 23.33° C | 15% | - | 0 mm | - | - | - |
| 1788625262 | 23.89° C | 13% | - | 0 mm | - | - | - |
| 1788621648 | 25° C | 8% | - | 0 mm | - | - | - |
| 1788620445 | 26.11° C | 9% | - | 0 mm | - | - | - |
| 1788619238 | 26.67° C | 5% | - | 0 mm | - | - | - |
| 1788618033 | 26.67° C | 7% | - | 0 mm | - | - | - |
| 1788616828 | 26.67° C | 8% | - | 0 mm | - | - | - |
| 1788615623 | 26.11° C | 9% | - | 0 mm | - | - | - |
| 1788614419 | 26.11° C | 8% | - | 0 mm | - | - | - |
| 1788613214 | 25.56° C | 11% | - | 0 mm | - | - | - |
| 1788612009 | 25.56° C | 11% | - | 0 mm | - | - | - |
* Rain latest hour (hover to see other rain measurements)
** Current wind speed in m/s (hover to see current wind gust speed)